Weather in Miandoab

Iran     36°57′52″N   46°05′36″E
В апреле 2022 года жителям России запретили посещать сайт meteo.paraplan.net по решению Генеральной прокуратуры. Аудитория сайта уменьшилась в 10 раз. Владельцы сайта не видят смысла в поддержке погодного сервера в таких условиях. Сайт будет закрыт в октябре.
temp.,
°C
wind,
m/s
gust,
m/s
humid.,
%
clouds,
%
prec.,
mm/h
press.,
hPa
HPBL,
m
30 september, fri
fri3000:30+20sse12150 0.0 101113
03:30+18s11170 0.0 101211
06:30+17sse11190 0.0 101411
09:30+24wnw11140 0.0 1014453
12:30+28wnw44150 0.0 10131514
15:30+29nw43130 0.0 10111065
18:30+23wnw33200 0.0 101323
21:30+20nw11270 0.0 101411
1 october, sat
sat100:30+19nnw12310 0.0 101518
03:30+17nw23460 0.0 101650
06:30+16nnw22520 0.0 101731
09:30+22nne45270 0.0 1017973
12:30+27nnw55210 0.0 10141780
15:30+26nw76260 0.0 10131165
18:30+21wnw36390 0.0 1014117
21:30+20ene611310 0.0 1015322
2 october, sun
sun200:30+18ene410300 0.0 1015239
03:30+16ne48330 0.0 1016193
06:30+15nne24370 0.0 101773
09:30+21ne46250 0.0 10161000
12:30+26ne56180 0.0 10121754
15:30+25nnw66230 0.0 10101079
18:30+20wnw35350 0.0 101193
21:30+18wnw22410 0.0 101121
3 october, mon
mon300:30+17sse01420 0.0 101011
03:30+16ese22420 0.0 101011
06:30+15se22425 0.0 101111
09:30+22se34261 0.0 1010600
12:30+28sw15158 0.0 10072300
15:30+30sw761024 0.0 10053286
18:30+24ssw510165 0.0 1008202
21:30+21s47205 0.0 1010101
4 october, tue
tue400:30+19se46245 0.0 101279
03:30+18sse45265 0.0 101269
06:30+17se45271 0.0 101459
09:30+25s58160 0.0 10141421
12:30+29sw89120 0.0 10123137
15:30+29ssw88110 0.0 10123106
18:30+24sw47180 0.0 1015137
21:30+21ssw11230 0.0 101613